RH
27 27 25 24 23 20 16 14 13 12 12 13 14 15 16 14 14 14 13 12 10 7 5 3 2 3 4 4 3 1 2 2 2 2 1 3 2 1 5 4 5 9 17 31 37 30 27 28 24 28 48 61 63 68 73 78 80 79 77 79 76 73 74 67 66 76 87 94 95 94 87 78 83 88 84 79 79 79 78 77 77 81 80 75 77 87 96 94
30 30 29 28 26 24 21 19 16 14 13 12 12 13 15 15 14 14 14 14 12 10 7 4 2 2 4 4 3 2 2 2 2 2 1 2 4 3 3 4 5 8 18 29 29 23 22 26 25 29 46 57 59 63 66 69 74 72 70 74 73 67 66 63 64 70 79 90 94 92 87 82 83 84 82 77 77 76 75 76 79 85 87 82 83 91 98 94
33 33 33 31 29 26 24 23 20 18 15 13 12 12 13 14 15 15 14 15 14 12 10 6 2 2 3 4 3 2 2 2 2 2 2 1 4 4 2 3 4 7 15 23 27 24 21 22 24 34 49 54 57 61 62 65 68 69 69 70 66 62 64 68 68 70 80 89 91 90 87 86 87 85 82 76 73 72 71 73 78 83 85 88 92 94 97 95
34 35 35 34 32 30 27 25 23 21 18 16 14 13 13 13 15 15 15 16 16 13 11 7 3 2 3 3 3 3 3 3 3 4 7 3 2 4 2 2 3 8 13 19 30 32 24 21 23 39 54 54 58 61 60 64 64 66 68 64 59 60 69 72 69 74 83 85 88 91 87 87 90 86 81 74 70 71 72 74 74 79 85 89 94 94 94 94
34 34 33 33 32 31 30 27 25 23 21 18 16 14 13 14 15 16 16 16 17 15 13 8 4 2 3 3 2 3 3 5 10 15 15 9 2 2 3 2 2 10 16 16 28 35 25 19 25 45 57 55 58 59 57 61 63 65 64 60 58 60 68 73 71 78 84 82 87 93 87 86 87 84 78 71 68 69 74 77 73 79 88 87 89 93 93 94
33 32 31 31 30 30 30 28 26 23 23 20 17 15 14 15 15 16 16 16 18 16 13 9 5 3 2 3 2 3 4 7 16 21 21 15 7 2 2 2 3 13 18 15 25 31 23 20 29 46 57 57 56 56 53 57 61 61 57 55 58 57 63 73 74 79 82 82 88 91 89 86 83 80 77 75 74 72 74 76 77 86 92 87 86 91 93 94
32 31 30 30 29 29 28 27 25 24 24 22 19 16 15 16 15 16 15 16 19 16 13 9 5 3 3 3 3 3 4 5 10 16 21 20 16 7 2 2 5 18 19 17 25 27 21 21 33 46 55 57 56 54 52 54 58 59 54 49 51 54 61 73 76 78 79 82 88 88 87 87 82 81 81 83 81 74 71 72 80 90 92 89 90 92 92 93
31 30 30 30 30 29 27 25 24 24 24 23 21 18 16 16 16 16 16 18 19 16 13 9 7 4 3 4 4 3 3 3 4 14 22 20 20 13 5 2 9 23 21 17 23 22 20 23 35 47 52 55 53 51 49 48 49 52 52 45 51 59 65 75 77 78 80 85 90 86 88 89 84 82 83 89 84 74 73 75 81 88 89 89 91 92 93 92
29 28 29 31 31 28 25 25 24 24 24 24 22 18 17 16 16 17 18 20 18 16 12 10 9 6 5 5 5 5 3 5 8 18 24 17 17 15 7 3 11 27 23 19 21 19 21 24 36 47 49 51 47 45 42 38 38 40 42 42 57 70 72 77 78 79 82 86 87 83 89 91 83 81 84 91 86 76 79 82 85 89 89 90 91 93 94 92
29 28 28 30 31 27 24 24 24 24 24 23 22 18 17 17 17 19 19 18 16 15 13 12 12 9 8 7 6 5 4 12 17 20 22 17 15 14 9 3 10 26 26 22 21 19 20 19 35 48 47 46 42 39 35 33 30 27 34 47 64 74 75 77 79 82 84 86 86 82 90 91 83 79 82 90 87 80 85 89 89 88 90 90 91 93 94 93
29 28 28 30 31 29 25 24 24 24 23 21 19 17 17 18 18 18 17 15 14 14 14 13 12 11 10 8 8 3 4 22 26 20 20 19 15 11 10 5 8 22 25 23 22 24 21 16 36 49 41 40 40 35 31 32 26 22 41 63 73 77 79 79 82 87 85 89 92 83 86 88 83 82 85 90 87 83 86 90 88 86 89 89 90 92 92 92
29 28 27 28 31 30 26 24 23 23 22 20 18 17 18 18 17 16 14 14 13 14 13 12 12 11 10 8 8 3 6 26 29 22 21 18 16 12 10 9 11 20 24 23 23 26 23 20 37 46 37 36 38 32 29 30 24 26 49 70 79 80 82 82 84 93 88 90 95 84 84 86 80 85 91 90 86 85 87 88 86 84 86 86 88 90 91 90
29 29 27 27 30 31 27 23 21 21 21 20 18 18 18 16 15 15 15 16 15 14 14 14 12 11 12 8 6 3 5 21 28 25 22 16 16 15 12 12 13 18 22 21 21 23 23 25 35 41 39 35 35 34 29 29 32 43 57 67 81 89 90 88 86 92 89 89 94 87 87 86 77 85 93 89 87 88 88 86 84 83 82 83 86 88 89 88
28 28 27 26 29 30 27 22 21 22 23 24 24 24 23 21 21 19 19 19 18 17 16 16 14 14 17 9 6 5 4 17 28 26 25 20 18 19 17 15 13 15 17 15 16 18 21 31 36 38 38 34 36 35 27 35 50 61 63 63 74 82 87 89 86 88 86 89 94 86 84 82 76 85 93 89 88 87 84 82 82 83 81 81 85 85 87 87
27 28 27 26 28 29 26 23 22 23 25 27 28 30 31 32 32 31 31 28 24 23 20 20 21 22 22 12 7 7 6 18 27 25 28 26 22 22 22 20 15 14 16 13 13 13 20 35 37 34 35 33 35 29 23 43 62 62 62 66 66 69 80 87 85 83 80 85 92 85 78 76 74 83 93 91 89 86 80 79 80 81 80 80 83 84 85 85
27 27 26 25 28 29 26 23 22 23 24 25 25 29 34 34 33 34 38 37 32 31 29 28 30 28 24 16 12 12 14 22 27 26 27 27 26 24 22 23 20 17 18 15 13 11 17 29 30 29 33 33 31 25 25 50 69 62 59 66 65 69 82 86 83 82 77 79 87 82 73 74 75 82 94 92 89 88 80 78 80 80 81 79 81 83 83 84
27 27 26 25 27 28 26 24 23 25 27 27 25 27 33 32 28 30 39 41 37 37 37 36 38 34 21 13 16 21 23 26 28 27 27 26 27 25 22 23 23 20 17 18 18 14 14 22 27 30 31 29 27 22 26 47 68 65 58 64 66 68 75 78 80 82 79 76 78 77 70 71 75 80 92 93 89 87 79 77 79 79 80 78 78 80 80 83
26 26 25 25 27 28 26 25 25 28 30 29 26 27 30 30 27 30 36 40 39 41 42 41 40 33 18 12 19 25 24 26 27 27 28 26 26 27 23 21 23 21 16 18 20 18 20 24 28 32 29 27 27 24 21 32 54 63 60 66 70 69 69 69 74 76 78 77 72 74 71 69 75 78 87 92 90 89 82 78 78 77 78 76 75 77 78 81
26 26 25 25 26 27 26 27 29 30 29 28 27 29 29 29 30 31 34 39 41 38 36 34 33 28 19 18 22 24 23 25 26 26 27 27 27 27 21 18 22 19 14 16 17 21 26 28 33 38 35 30 26 24 19 19 39 54 56 61 66 71 72 67 67 68 72 77 71 70 69 67 75 79 82 88 89 90 89 85 80 76 76 76 76 76 78 81
26 26 25 24 25 26 27 29 30 29 28 28 28 30 32 33 33 33 35 37 35 31 28 28 30 28 24 23 22 23 24 24 26 27 27 27 26 24 18 18 20 15 12 14 15 21 28 34 40 41 38 30 22 21 19 17 31 47 53 57 61 65 68 65 70 71 67 71 74 71 69 69 75 78 79 85 87 88 90 90 86 78 74 76 77 77 79 81
25 25 25 24 24 26 27 28 30 28 27 28 30 32 35 37 36 34 34 31 28 28 29 27 28 26 22 22 21 22 25 24 26 27 27 27 23 19 18 19 17 13 15 17 19 24 30 39 42 35 29 26 21 18 16 16 22 35 45 52 56 59 62 66 76 81 75 77 83 81 77 78 77 76 79 84 85 84 89 92 89 81 74 75 78 78 79 79
25 25 24 24 23 25 27 27 28 28 27 28 30 33 34 37 37 35 36 33 29 27 26 25 25 22 19 21 21 22 26 26 25 25 25 27 22 17 20 21 16 16 21 23 23 29 37 42 38 30 24 20 19 17 15 15 14 19 26 31 41 53 61 68 79 83 80 79 82 84 81 79 77 75 78 81 80 80 87 90 88 84 78 75 77 78 79 78
24 24 24 24 23 24 25 26 26 27 27 27 29 31 32 35 36 35 35 34 32 26 23 23 23 21 21 22 21 21 24 25 25 24 24 25 24 21 22 21 18 20 25 24 24 34 41 38 31 26 22 19 18 16 15 16 14 13 16 16 26 44 55 65 78 79 73 70 72 77 78 76 78 80 79 79 80 84 87 87 88 87 82 77 77 78 79 77
22 23 23 23 23 23 24 24 25 26 27 26 28 30 30 33 36 34 33 35 36 28 19 18 18 19 22 23 22 23 24 23 23 23 23 24 24 23 22 21 21 23 26 25 27 35 35 28 25 23 20 20 18 16 15 17 18 14 13 14 18 36 53 63 75 79 77 73 68 74 83 84 84 85 83 81 84 89 90 89 91 92 86 80 77 77 78 77
20 22 22 23 23 22 22 23 24 24 25 25 28 29 28 30 34 35 34 33 31 23 14 14 15 16 18 20 22 22 22 22 22 22 22 23 24 23 23 23 21 22 26 26 28 34 30 22 23 22 20 21 19 18 16 17 20 15 15 14 9 29 58 71 77 79 80 79 69 72 85 83 78 79 79 82 89 91 93 93 92 91 88 82 80 78 76 76
17 20 22 22 22 22 22 21 22 22 23 25 27 28 27 30 33 36 35 28 20 14 11 12 13 13 14 16 19 21 22 21 20 22 22 22 24 23 23 23 20 23 25 24 26 29 26 21 21 21 21 21 20 20 18 17 21 19 16 13 11 30 60 73 75 71 69 69 66 67 73 71 72 75 72 77 88 89 92 95 92 91 90 86 82 80 76 73
16 18 20 21 21 22 21 20 21 21 23 26 27 28 29 30 33 35 33 25 18 14 12 10 10 12 12 13 17 19 21 20 19 24 25 24 24 22 22 22 20 23 22 25 32 28 21 21 21 20 20 21 21 22 19 17 20 20 15 12 18 34 54 65 65 61 59 62 69 71 67 66 68 68 66 69 81 86 89 92 92 92 91 87 82 79 78 72
14 16 18 20 20 20 21 20 21 21 22 25 27 29 30 31 34 36 31 23 17 13 11 11 9 10 10 11 14 15 16 16 18 24 25 24 23 21 21 20 19 22 20 26 36 28 19 21 21 20 21 21 20 20 17 16 19 17 15 19 26 33 45 53 52 58 63 63 72 75 67 63 62 64 68 71 79 87 87 85 87 92 90 87 84 79 79 75
14 14 16 18 19 20 20 20 20 20 22 25 27 30 32 33 35 34 30 23 16 12 11 11 9 10 10 10 13 13 13 13 15 21 23 23 22 20 21 20 19 21 20 24 29 24 19 20 18 18 21 20 19 18 15 16 17 16 21 30 37 40 46 49 48 59 68 59 58 66 65 60 57 64 75 78 81 79 76 76 77 86 90 87 85 81 80 78
12 13 15 16 18 19 18 19 19 20 23 24 28 31 33 33 30 28 28 22 15 13 11 11 10 10 12 11 11 13 13 12 16 23 23 22 21 19 21 21 20 20 20 21 23 21 19 20 19 17 18 18 16 18 15 15 15 16 26 37 43 48 51 52 50 56 66 59 49 55 60 57 54 62 71 75 74 67 66 72 71 76 85 86 86 85 83 82
12 12 13 15 17 18 17 18 18 20 23 25 29 31 31 31 27 27 27 20 15 14 12 13 13 11 13 13 11 11 12 12 17 23 22 21 20 19 20 21 21 22 22 23 21 20 19 20 21 17 17 16 15 17 16 15 15 14 26 35 40 53 57 57 60 60 62 56 49 53 58 59 57 58 62 64 64 60 60 66 65 67 78 85 88 85 83 82
11 10 12 15 16 17 18 18 19 21 24 26 27 27 29 28 26 27 24 18 17 16 14 16 15 13 13 13 11 12 12 12 17 22 21 21 21 20 21 22 23 25 27 26 23 21 19 18 19 16 17 16 14 17 15 16 16 13 23 29 34 54 61 59 66 65 57 52 52 57 60 64 60 54 58 60 60 60 58 58 60 63 73 83 88 86 84 81
11 10 12 14 15 16 17 18 19 21 24 27 25 23 28 28 24 27 26 20 18 15 15 18 17 15 13 12 13 13 13 13 16 19 19 20 21 21 21 20 21 23 27 27 24 23 20 18 17 16 19 17 14 16 15 17 18 14 21 25 30 50 57 60 68 59 49 50 52 58 64 65 58 54 62 62 59 61 60 59 61 64 71 80 85 85 82 79
10 10 12 14 15 16 17 18 20 23 25 24 21 23 29 29 26 29 27 19 16 14 16 19 18 17 15 15 16 15 15 16 16 17 18 19 21 22 20 18 17 18 21 24 23 22 23 21 18 16 18 17 15 15 12 14 17 14 16 18 26 39 41 48 56 44 42 54 58 61 65 62 57 62 69 66 65 67 63 61 61 65 72 74 79 84 82 81
11 11 13 14 15 15 17 19 20 24 23 19 22 29 32 30 28 27 23 16 15 16 17 19 19 19 17 18 19 16 16 18 18 17 18 20 22 21 20 17 16 16 18 24 24 22 23 21 16 16 18 16 14 14 11 12 15 15 15 14 21 28 31 39 45 41 44 56 66 67 61 59 58 62 67 66 68 70 65 62 61 65 72 72 74 82 85 85
13 14 15 15 15 16 18 20 21 23 21 20 25 29 29 29 25 23 22 18 16 18 19 18 18 19 19 19 20 19 17 19 20 19 20 22 20 18 18 16 15 15 16 22 25 23 23 20 17 18 18 15 14 13 12 13 15 16 16 16 18 19 26 36 44 49 47 44 59 66 57 57 55 54 66 69 68 70 65 60 59 63 70 71 70 74 82 86
16 16 17 17 16 18 19 20 22 21 19 23 29 31 30 26 20 21 23 19 16 19 21 19 19 22 22 20 20 21 18 18 20 19 19 21 19 16 16 15 14 15 15 18 20 21 21 19 18 19 17 15 17 15 12 13 15 16 15 15 18 17 21 30 40 53 50 41 55 63 54 57 56 55 69 73 70 73 68 61 62 65 69 71 68 70 79 84
18 18 19 20 19 19 19 20 21 19 19 29 40 41 34 25 21 21 20 17 17 20 22 23 22 23 24 22 21 21 20 18 20 21 19 19 19 16 16 16 14 15 16 16 18 20 21 20 18 18 18 17 17 15 15 16 15 15 14 13 16 18 21 29 38 46 46 48 59 63 60 60 54 54 66 74 77 78 74 69 66 66 69 71 70 74 82 84
21 21 21 23 22 19 20 20 19 17 20 30 39 39 29 24 23 19 16 17 20 20 22 25 24 23 24 24 22 22 21 19 19 23 22 20 19 17 18 18 15 15 17 18 20 21 22 24 21 19 18 17 16 17 17 17 17 16 15 13 14 18 19 25 31 32 37 49 58 63 67 61 54 59 66 74 84 83 79 78 73 71 74 75 75 79 83 85
22 22 23 24 23 21 22 20 17 21 27 30 33 32 27 25 21 14 14 17 19 19 22 24 24 24 25 24 23 23 24 23 20 20 20 19 18 18 19 20 18 17 18 19 21 23 24 26 24 19 17 18 18 18 17 16 16 15 15 15 17 19 18 22 30 34 39 49 54 58 61 56 60 71 71 73 84 85 83 85 83 83 84 84 84 84 85 86
21 23 24 24 22 22 20 17 20 27 30 29 29 28 27 25 18 13 15 17 17 19 20 22 24 24 25 25 24 25 26 26 22 19 19 20 20 20 20 23 24 20 17 18 21 24 26 29 28 22 19 19 19 19 19 19 16 14 16 16 15 18 20 21 30 42 45 47 50 49 47 52 65 72 71 73 78 80 83 86 87 89 89 90 91 89 88 87
21 24 26 23 22 21 17 21 34 36 27 23 24 22 22 21 16 13 17 17 17 18 18 21 23 24 26 25 25 28 28 27 25 21 20 20 21 22 21 25 30 26 20 19 21 26 30 34 33 25 20 19 20 22 24 22 18 14 13 14 14 17 20 18 24 41 49 51 53 47 42 56 71 71 70 75 78 81 85 87 89 94 95 96 97 95 93 92
23 26 24 21 21 21 18 25 37 36 26 21 19 16 16 17 15 15 20 21 20 19 18 19 22 23 26 25 26 30 29 26 26 23 21 22 22 21 21 26 33 34 28 22 21 27 37 44 40 28 23 21 18 20 22 19 18 16 15 19 17 15 17 18 25 39 46 50 52 44 43 61 74 73 75 81 85 89 90 89 93 97 99 100 100 99 99 98
27 28 24 19 21 21 20 24 28 29 30 26 18 15 14 15 17 18 20 23 24 24 21 20 22 23 26 28 29 31 30 27 26 24 23 24 22 20 21 24 29 38 40 32 27 30 40 51 47 30 24 23 19 20 21 20 21 19 21 27 25 21 24 29 38 44 45 53 55 39 39 62 74 75 80 83 85 90 92 94 98 98 100 101 99 100 100 99
26 25 22 19 21 21 18 20 21 24 31 28 19 18 17 14 17 19 21 24 27 28 25 24 25 26 28 31 31 30 30 26 25 27 26 24 22 20 20 22 25 37 46 42 37 36 40 53 53 37 29 31 31 31 30 28 29 26 30 37 35 32 33 35 41 40 40 58 61 39 42 74 84 80 83 85 85 90 94 97 100 99 100 100 99 100 100 99
28 29 28 22 18 18 18 23 23 21 27 30 24 20 20 17 17 19 22 24 27 29 28 26 28 29 28 31 32 30 30 27 27 32 31 26 24 21 20 20 22 31 41 37 32 37 44 52 54 45 38 37 38 39 34 32 36 38 41 44 43 43 43 39 38 34 38 56 59 47 61 90 94 85 87 89 86 89 93 95 98 100 100 100 100 100 100 100
32 39 46 36 24 24 28 33 36 28 23 27 25 22 23 22 20 21 21 24 26 28 28 26 26 28 30 34 34 31 34 33 28 30 32 29 29 25 19 20 19 22 31 27 25 36 44 47 50 47 40 35 35 33 29 29 35 42 48 50 50 52 49 40 36 38 44 46 46 58 79 90 86 81 84 89 88 88 90 92 96 100 99 100 101 100 100 100
36 45 54 47 33 31 33 40 47 38 26 27 29 25 24 23 23 23 22 23 25 26 28 26 23 26 33 38 36 34 41 40 29 30 33 30 31 27 18 18 19 19 25 26 28 36 40 43 49 46 36 32 32 29 25 27 30 37 47 53 55 57 55 51 50 52 52 43 41 65 84 81 75 77 81 84 85 86 87 88 92 97 97 97 98 97 96 96
43 50 54 48 40 42 47 51 50 38 32 40 37 25 25 25 22 22 23 26 28 27 28 28 23 23 30 40 44 41 42 37 28 32 35 30 31 30 22 21 19 18 24 29 34 38 37 41 46 45 40 35 31 29 27 26 30 38 47 52 54 57 59 62 63 61 62 60 58 69 81 77 71 73 78 80 80 84 88 87 87 89 89 90 90 90 90 92
51 55 57 54 50 56 60 51 38 29 30 38 34 24 27 28 22 22 24 28 32 31 27 24 24 25 27 35 39 34 33 32 26 29 33 30 30 30 27 25 21 20 26 32 37 37 34 40 47 50 54 47 31 29 29 26 31 39 48 54 56 54 57 63 66 66 70 76 72 70 79 82 74 73 78 80 80 85 87 85 83 83 84 85 84 84 87 90
52 53 58 61 57 61 63 47 35 33 27 26 29 29 30 26 22 26 27 27 32 32 26 22 23 28 29 29 30 24 24 30 27 24 26 25 25 25 25 25 23 22 26 32 41 41 34 38 43 44 53 55 42 35 31 26 27 33 45 60 62 59 61 65 68 70 74 77 75 72 78 83 79 75 77 78 78 83 83 82 83 83 83 84 82 84 88 90
52 51 59 65 55 55 61 47 35 32 24 25 35 38 36 28 25 30 29 26 29 28 25 25 26 29 30 28 27 22 20 24 24 22 21 22 24 26 26 29 28 27 29 31 39 49 44 37 36 39 46 53 52 47 38 30 29 33 43 58 64 61 62 65 67 69 71 71 69 67 71 78 78 75 77 76 75 79 80 80 83 84 84 83 82 84 88 89
Wind_Speed
11 11 10 10 9 9 8 8 7 7 6 7 8 8 8 8 9 9 9 8 8 8 8 8 9 9 9 9 9 9 11 12 13 17 17 10 7 11 10 11 15 18 23 24 24 23 20 18 15 15 15 11 8 8 8 6 2 2 2 2 2 1 1 2 6 5 4 7 9 9 8 11 11 10 13 13 14 15 13 12 11 10 13 16 22 27 26 24
12 11 11 10 10 10 9 8 8 7 7 7 8 9 8 8 8 9 9 9 8 8 8 8 8 8 9 9 9 9 10 11 13 18 15 7 5 10 12 14 16 19 25 27 26 25 23 21 18 17 16 10 6 6 6 5 4 4 2 2 2 1 3 3 6 7 5 9 11 9 8 11 13 12 13 11 12 15 14 13 15 17 18 19 25 27 24 24
13 12 11 10 10 10 10 9 8 8 8 8 8 9 9 8 8 8 9 9 9 9 9 9 8 7 7 8 9 9 9 10 13 15 12 9 9 9 13 16 17 19 24 27 26 23 20 20 20 19 16 8 5 6 6 5 4 5 3 2 2 2 4 2 7 8 7 13 13 10 10 11 12 11 10 11 14 14 13 14 16 19 21 24 26 26 25 24
14 13 13 11 10 10 10 10 9 8 8 8 8 8 9 9 9 9 9 9 9 9 9 9 8 6 6 6 7 8 9 9 8 8 7 8 11 12 14 16 17 18 22 26 25 20 16 18 19 19 14 7 6 6 5 6 4 3 4 3 3 3 3 2 8 9 12 17 15 11 11 11 10 9 10 14 12 8 10 15 19 22 26 28 27 26 25 23
15 15 14 13 12 11 10 10 10 9 8 8 8 8 8 9 9 9 8 9 9 9 9 9 9 6 5 5 6 7 7 3 1 1 2 4 10 14 15 16 16 18 21 24 25 21 16 18 19 16 10 5 6 5 5 8 6 3 5 6 6 5 3 4 9 11 16 20 16 11 11 11 10 9 12 13 6 5 10 13 19 25 28 31 31 27 24 23
16 16 15 14 13 11 10 10 9 9 9 8 7 7 7 8 9 8 8 8 8 9 9 9 9 6 4 4 5 6 5 2 3 3 2 2 9 14 14 15 16 18 21 23 25 22 18 21 19 13 9 5 7 6 3 8 8 4 4 6 8 8 3 5 10 12 17 18 14 11 11 12 11 10 11 7 3 6 14 15 19 24 26 30 31 28 24 23
17 17 17 15 13 11 11 10 9 9 9 8 7 7 7 7 8 8 8 8 8 8 9 9 9 7 4 4 5 6 8 6 3 2 3 1 6 12 13 15 18 21 23 25 26 23 20 22 18 12 10 5 6 7 3 6 9 6 5 5 8 7 4 7 11 13 16 14 13 14 13 11 10 10 8 5 5 11 17 18 20 24 26 27 27 26 24 22
17 17 17 16 15 13 12 11 10 10 9 9 8 7 6 6 7 7 7 7 7 8 9 9 9 7 5 4 5 6 9 9 5 3 4 2 4 9 12 16 20 22 25 26 26 24 21 22 19 13 10 5 5 7 4 4 8 8 7 5 5 4 6 10 12 14 14 12 12 14 11 7 9 11 8 6 10 16 18 19 22 26 26 25 24 23 22 21
17 17 17 17 16 15 14 12 11 10 10 9 8 6 5 5 5 6 6 7 8 8 9 9 9 7 5 4 5 5 6 7 5 4 4 2 3 7 11 17 21 23 24 25 24 23 20 20 20 13 8 6 5 5 4 3 4 7 8 4 2 5 9 12 14 13 14 13 13 14 9 7 12 12 7 7 14 18 19 21 24 26 25 23 22 22 21 20
17 17 17 17 17 16 15 13 12 11 10 9 7 5 4 4 4 5 6 7 8 8 8 9 9 7 5 4 3 2 2 4 4 5 4 1 2 8 12 15 20 23 23 23 22 22 20 20 21 12 5 6 5 3 3 3 1 1 4 2 5 8 9 13 14 11 12 11 10 12 9 8 12 7 3 9 17 20 21 22 24 24 23 22 21 20 19 18
16 17 17 16 16 17 16 15 13 11 10 9 7 5 4 3 4 5 6 7 8 8 8 8 9 8 6 5 4 3 1 2 2 5 5 5 4 6 11 14 18 22 21 22 21 21 19 17 19 12 3 4 4 2 2 4 5 2 6 8 8 10 9 12 12 8 8 6 5 11 11 8 8 3 4 14 19 20 23 23 23 22 21 21 20 19 17 17
16 16 16 15 15 16 16 16 14 11 10 9 7 5 4 4 4 5 6 7 8 8 8 8 8 8 7 8 9 7 3 0 1 4 6 7 6 5 9 12 16 19 19 19 20 20 16 13 17 11 3 3 3 2 1 5 6 5 11 9 8 9 7 8 10 6 4 3 4 11 9 5 6 3 7 18 20 21 23 23 23 21 20 20 20 18 17 17
16 16 15 14 14 15 16 15 14 12 11 10 8 7 5 5 5 6 6 7 8 8 8 8 8 8 7 7 7 5 6 3 2 5 7 8 7 6 8 11 13 15 16 16 16 18 16 13 16 11 3 1 0 2 4 5 2 9 10 7 7 6 4 5 8 5 2 3 4 5 2 5 7 5 10 20 21 21 22 22 23 21 20 20 19 19 17 17
15 16 15 13 13 14 14 14 13 13 12 11 9 8 7 6 6 6 7 7 8 8 8 9 8 7 7 6 4 3 5 6 4 5 8 9 9 7 7 9 12 13 13 13 13 16 16 14 14 10 5 2 3 5 5 1 5 8 6 6 6 4 5 5 6 6 4 5 5 1 1 4 7 7 12 21 21 22 21 20 22 21 20 20 18 19 18 17
15 16 15 13 12 13 13 13 13 13 13 12 11 10 9 9 9 8 8 7 8 8 9 9 8 8 9 8 3 2 4 6 5 5 6 7 8 8 8 8 10 12 11 9 10 15 16 14 11 6 3 4 4 4 1 3 4 5 4 5 4 3 5 5 7 9 5 6 6 1 1 2 7 9 13 21 21 19 20 21 22 21 20 19 18 18 18 17
14 16 15 13 12 12 12 12 13 13 14 14 13 10 10 12 12 10 8 7 8 9 9 9 9 8 8 4 2 3 4 5 4 4 6 6 6 5 6 8 9 10 11 9 8 14 17 13 6 1 2 3 2 1 3 4 4 3 2 3 6 4 5 5 6 9 6 7 7 4 2 1 5 10 13 20 22 18 18 21 22 21 20 19 18 18 18 17
14 15 15 13 12 11 11 11 12 13 14 14 13 10 10 13 14 10 7 7 8 10 10 10 9 7 3 2 5 4 5 4 4 4 5 7 7 4 4 9 11 11 12 12 10 13 16 11 5 2 1 1 1 1 4 5 5 4 2 3 6 5 6 5 5 8 9 9 9 8 5 1 4 11 14 17 22 20 19 21 22 21 20 18 18 19 18 18
13 15 15 13 12 11 10 11 12 12 14 14 13 11 10 13 15 8 4 7 9 8 8 6 5 3 1 3 2 2 4 3 5 4 4 7 9 5 1 7 12 14 14 12 9 11 13 8 4 3 1 2 2 3 4 3 4 7 5 4 5 6 6 5 3 8 12 9 10 10 8 3 5 10 14 16 19 18 16 18 20 21 20 19 19 19 19 19
13 14 14 14 12 11 10 10 11 12 13 12 13 12 11 16 14 4 6 11 8 4 4 3 3 3 2 2 1 3 3 3 5 4 4 7 10 6 2 7 14 16 14 10 6 8 10 7 4 4 4 4 3 5 4 1 3 7 7 4 6 6 6 6 2 7 14 9 8 10 8 3 4 8 13 15 17 15 14 16 18 20 20 19 19 19 19 19
12 13 14 13 12 11 9 10 10 11 11 11 13 12 10 15 9 2 12 16 8 5 7 7 7 8 6 3 2 4 2 6 5 5 5 6 12 10 7 11 14 12 9 7 6 7 9 7 5 6 5 4 3 4 2 1 2 6 7 5 6 6 5 6 2 3 9 7 4 6 6 4 2 5 10 15 16 14 15 16 17 19 21 20 19 18 19 18
11 12 13 12 12 11 10 10 9 9 10 10 12 11 9 11 6 6 15 14 9 10 9 7 7 9 7 4 3 2 4 6 5 7 5 7 13 11 8 10 9 6 4 6 8 6 8 7 7 7 4 2 2 3 2 2 3 4 6 6 5 5 2 4 6 5 4 3 2 4 5 6 4 4 9 14 16 16 18 18 19 21 22 21 19 18 18 17
10 10 11 11 11 10 10 9 9 8 8 9 10 10 10 11 10 10 10 9 11 11 7 5 7 8 6 4 3 3 6 5 6 8 7 12 14 8 7 7 5 4 4 6 8 6 7 8 7 6 3 2 2 3 4 3 3 2 3 5 4 5 4 6 9 9 6 4 4 7 7 7 6 6 9 15 17 17 19 19 20 21 21 22 21 18 17 17
10 10 9 10 10 10 10 10 9 8 8 9 9 9 11 12 13 12 6 6 9 8 6 5 6 6 5 4 1 8 8 5 6 8 8 13 12 7 9 7 3 6 6 8 9 7 6 6 6 6 5 5 3 3 4 3 2 1 2 3 3 6 4 2 6 9 6 2 2 8 8 5 6 6 7 14 17 14 16 17 16 19 19 19 19 18 18 19
10 9 8 9 9 9 10 10 8 8 9 9 8 8 11 12 13 11 5 4 5 5 5 6 7 5 3 4 2 6 7 7 9 10 9 12 12 8 8 6 5 7 5 6 9 9 4 2 6 8 7 7 4 4 5 4 3 1 1 2 3 7 4 2 6 8 5 2 1 7 6 3 7 8 7 11 13 12 15 16 15 18 20 17 15 17 18 19
10 9 8 8 9 9 10 9 7 8 10 9 7 9 11 12 12 10 6 2 2 4 5 5 6 5 4 3 3 3 5 6 8 11 11 12 12 8 6 6 5 5 3 5 9 8 4 4 8 9 7 7 6 5 5 5 3 2 4 5 3 7 6 9 11 8 4 4 5 7 5 3 7 11 9 9 10 11 13 15 16 18 21 20 15 15 19 21
10 10 9 8 8 9 11 9 7 9 9 7 8 11 12 12 12 9 5 1 1 4 6 5 4 4 3 2 2 2 4 4 4 10 13 11 9 7 7 4 2 3 4 5 4 3 3 5 7 8 8 8 6 5 4 4 4 2 3 4 5 7 10 14 14 8 3 2 5 8 5 2 5 10 11 10 11 13 13 13 17 18 20 22 20 16 18 22
10 10 9 9 8 9 10 9 8 9 7 7 11 13 12 13 11 7 3 0 2 4 5 4 3 3 3 2 2 1 3 3 3 8 11 11 9 7 6 4 2 4 4 4 3 2 4 6 5 6 8 7 6 5 5 5 5 1 1 4 8 9 11 14 12 6 2 2 4 7 6 4 2 5 10 13 12 13 14 14 15 17 21 25 27 22 18 23
10 9 9 9 8 9 9 8 8 8 8 10 14 13 13 14 9 3 1 1 3 3 4 3 3 2 3 1 1 0 2 3 3 5 8 11 8 4 5 6 6 6 4 5 6 3 3 6 7 7 6 5 5 4 7 8 4 1 2 4 6 6 8 11 9 4 3 3 4 7 6 5 2 2 6 12 13 12 16 16 15 19 23 26 29 28 21 21
10 9 8 8 8 8 8 8 7 8 10 12 14 15 15 10 2 2 1 2 3 2 2 3 4 3 3 2 0 1 1 1 1 3 8 9 6 2 2 5 6 6 4 3 5 2 2 5 6 7 5 4 4 4 9 10 4 3 5 5 5 3 5 7 5 4 4 3 4 8 10 5 2 2 5 9 12 13 13 14 16 21 25 28 29 30 24 20
9 8 7 7 7 8 7 7 7 9 11 13 15 17 12 2 3 1 2 2 2 2 3 4 5 4 3 1 0 1 1 1 2 5 7 6 3 3 3 4 4 5 4 1 3 1 1 2 3 4 5 4 4 5 7 9 6 8 7 6 7 5 4 4 2 3 4 3 3 8 13 8 3 2 6 7 6 10 12 11 15 20 24 29 30 30 26 21
8 8 6 6 6 6 7 7 7 9 11 13 17 15 5 2 1 2 3 2 2 3 3 3 3 3 2 0 0 2 1 2 3 3 5 4 4 4 3 3 3 3 2 1 2 1 2 2 2 4 6 5 5 4 3 3 4 6 6 6 6 4 4 3 3 3 4 3 0 5 11 9 5 1 4 6 3 5 12 12 15 20 23 28 31 30 27 24
8 7 5 5 5 6 7 7 9 10 12 15 17 10 1 1 2 2 1 3 2 3 2 2 2 2 1 0 2 3 1 1 3 2 2 1 2 3 1 0 2 3 2 2 2 1 4 4 2 4 7 7 6 4 2 1 3 5 5 6 6 4 4 4 4 4 4 2 1 3 9 7 5 0 3 6 5 4 9 12 16 21 23 26 30 30 29 29
7 6 4 4 4 5 6 7 9 10 13 18 15 4 2 2 3 1 3 2 2 2 1 1 2 2 1 0 2 3 1 2 2 1 2 1 2 3 2 2 1 1 1 1 2 2 4 3 3 5 6 8 9 6 4 4 5 7 7 7 6 5 5 5 4 2 3 2 2 4 7 4 4 2 2 4 6 5 8 11 17 22 24 25 30 33 33 33
5 4 3 2 3 4 5 7 9 10 15 18 9 1 2 3 1 2 3 2 2 2 1 2 3 2 2 2 2 2 1 3 3 2 2 1 2 2 2 3 1 0 1 2 2 3 4 2 6 8 5 9 11 9 6 6 7 8 7 6 6 4 4 4 4 3 2 3 3 5 5 3 2 2 1 3 6 8 11 12 14 19 22 24 27 30 33 33
4 3 1 1 2 4 5 7 8 11 16 13 3 2 3 2 1 2 1 2 3 3 2 2 2 2 2 2 2 2 1 3 3 4 5 4 2 2 1 2 2 1 1 2 1 1 3 3 3 3 3 10 13 10 8 8 6 5 5 6 6 4 3 1 1 1 2 3 3 4 3 2 1 1 1 2 4 5 9 13 13 14 19 21 21 25 28 30
4 3 2 1 2 3 4 6 7 12 15 8 3 4 2 0 1 1 1 2 2 3 3 1 2 2 2 1 2 3 4 3 2 2 4 3 2 3 2 2 2 1 1 2 1 1 2 2 1 1 3 9 9 10 10 7 5 4 5 7 3 1 2 1 1 3 1 3 3 2 3 1 1 3 2 0 2 1 4 10 13 12 16 20 21 24 26 28
3 3 4 2 1 2 4 5 8 12 12 5 4 3 1 1 1 2 2 4 2 2 2 0 2 2 2 1 2 4 4 2 1 1 2 1 1 3 4 3 1 2 3 2 1 0 2 3 1 2 6 5 3 6 7 4 4 5 6 7 5 1 1 1 1 3 2 4 2 3 6 3 2 2 2 1 0 1 2 6 9 11 15 18 21 23 24 28
3 4 5 3 1 1 3 5 9 11 7 4 3 2 0 1 1 3 4 4 2 1 2 2 1 1 1 1 2 4 3 1 2 1 2 1 0 0 4 3 1 2 3 3 1 1 2 4 1 3 4 1 2 6 5 3 3 1 4 9 6 3 4 2 2 3 4 3 2 3 5 4 4 3 3 3 2 2 3 5 7 10 14 16 19 20 22 28
5 5 5 6 4 2 3 5 8 8 4 3 2 1 0 2 3 4 5 3 1 1 2 2 1 1 1 1 1 3 3 1 1 1 1 2 1 1 4 3 1 3 3 2 1 1 1 2 1 2 1 1 3 6 6 6 5 1 3 7 3 2 4 4 2 2 3 3 3 3 3 4 4 1 3 6 4 2 3 5 6 9 12 14 17 18 20 26
5 4 3 6 6 3 4 5 7 7 4 2 1 0 1 2 4 7 8 3 1 2 1 0 1 1 1 1 0 1 3 3 2 1 1 1 0 1 2 3 3 5 3 1 1 1 1 1 1 1 1 3 3 2 4 5 7 5 6 7 4 1 2 2 1 0 1 3 3 3 3 2 1 1 3 7 6 4 5 6 6 8 11 13 15 16 18 22
5 2 2 4 5 3 3 4 5 4 2 1 0 1 1 3 4 8 10 5 2 3 2 1 1 2 1 1 1 1 1 3 3 2 2 2 2 1 2 4 3 3 3 1 3 3 1 0 3 1 1 3 1 2 2 1 2 4 6 7 6 4 4 5 4 1 0 1 2 2 3 1 3 1 3 6 7 6 7 8 8 9 11 13 13 15 17 20
4 2 1 2 2 2 2 3 2 1 1 1 1 1 2 3 4 7 10 7 4 3 3 2 1 2 1 1 2 1 2 3 3 2 2 3 3 1 6 11 6 4 2 0 1 2 0 0 2 1 0 1 1 2 2 1 1 1 2 2 3 4 5 7 6 4 3 1 1 1 2 1 3 2 4 5 6 7 8 10 10 9 9 11 11 12 14 15
3 2 1 1 1 0 2 1 1 1 1 1 1 1 2 3 3 4 7 7 5 3 3 2 1 2 3 2 1 1 2 2 3 2 1 1 3 2 9 14 6 2 1 1 1 0 1 0 2 1 1 1 1 2 4 2 1 3 5 4 1 2 2 3 2 3 5 4 3 3 3 1 3 3 5 6 8 9 8 9 10 8 7 8 10 10 11 11
3 3 2 2 1 1 1 1 0 1 0 0 2 2 2 3 4 4 4 5 5 3 2 2 2 2 3 2 2 2 1 1 2 2 1 1 1 3 9 13 8 3 3 1 1 2 1 0 2 1 1 3 4 4 4 3 4 3 3 5 4 2 0 3 3 2 4 3 2 4 4 2 3 4 6 8 9 9 8 8 8 7 6 7 9 10 11 11
2 2 2 3 2 2 2 1 1 1 0 1 2 2 2 2 3 5 3 4 5 3 1 2 2 2 2 1 2 4 4 2 2 0 0 1 0 3 9 13 10 5 4 2 1 2 1 0 2 2 1 3 3 2 2 3 5 3 3 7 6 2 1 2 3 3 4 3 2 3 2 3 5 6 7 8 9 9 8 8 8 7 6 7 8 9 10 10
1 1 1 3 4 5 5 4 2 1 2 1 2 1 2 1 2 5 4 4 6 5 3 3 3 2 2 2 3 5 6 5 3 2 1 1 1 2 7 12 11 9 6 4 3 1 1 1 2 4 5 3 3 2 2 3 3 5 7 9 7 3 3 2 3 4 4 5 3 2 3 7 9 10 9 9 9 9 8 8 9 8 7 7 8 8 8 8
1 1 1 1 3 4 5 6 5 2 2 1 1 0 2 0 1 4 4 4 5 6 3 4 4 2 1 2 2 3 5 4 4 3 1 2 1 2 5 8 12 13 8 5 5 2 2 1 2 5 5 3 3 2 1 2 4 7 9 10 9 6 4 3 2 2 5 6 4 3 8 11 13 14 12 10 9 9 9 10 9 8 8 8 8 8 9 8
2 2 2 2 1 1 1 4 6 3 3 1 1 1 1 2 2 2 3 3 5 6 3 2 6 5 1 0 1 2 2 2 3 2 1 2 2 2 3 4 9 14 10 5 6 3 2 1 0 1 2 4 3 3 4 5 4 4 9 12 11 9 5 2 2 2 2 2 2 6 11 9 11 15 13 10 11 11 11 12 10 9 9 9 9 9 9 8
4 4 3 3 2 1 1 3 2 3 3 2 1 1 1 2 3 1 2 2 3 6 4 2 4 6 2 0 1 2 1 1 2 1 1 2 2 1 3 2 5 12 9 3 5 3 1 1 1 1 1 2 1 3 5 8 6 5 10 14 11 9 8 6 5 4 3 3 1 8 11 7 8 13 12 11 13 13 12 12 11 11 11 10 10 9 9 8
5 4 2 1 2 2 3 2 1 2 2 2 1 1 1 2 2 1 1 2 2 2 3 4 2 3 3 3 4 3 1 1 2 2 0 0 1 1 2 1 2 7 7 3 3 3 1 1 0 1 1 3 5 4 5 6 7 8 13 16 14 10 8 7 6 5 4 3 5 10 11 8 8 12 13 13 13 13 12 12 11 11 11 11 10 9 9 9
4 4 3 1 1 3 3 2 2 1 1 1 1 1 1 1 1 2 2 3 2 1 1 3 4 1 2 5 6 3 1 3 1 2 2 1 1 1 2 0 2 3 5 3 3 3 2 1 0 1 2 2 5 6 5 5 4 7 13 16 15 11 7 6 6 5 4 2 7 9 7 5 9 13 14 14 14 13 13 12 11 10 9 9 9 9 9 10
6 5 4 1 1 3 2 1 1 1 1 1 1 2 1 2 3 3 2 3 3 3 2 3 3 1 1 3 5 3 3 2 1 2 1 3 4 6 6 5 3 3 3 2 1 2 1 2 2 2 3 1 4 6 6 6 4 4 7 8 9 10 6 3 4 6 5 1 2 3 3 6 12 14 13 13 13 13 13 12 11 10 9 9 9 9 9 10
Wind_Direction
23 18 14 8 360 348 338 328 319 310 298 288 286 290 297 302 306 306 310 316 320 318 319 315 304 291 279 268 258 254 261 263 268 267 259 259 238 224 214 193 191 188 183 179 180 179 169 167 167 167 166 163 174 182 195 207 226 276 316 321 336 294 272 253 191 171 138 137 142 157 152 139 134 125 124 120 113 112 110 105 105 104 116 136 146 147 148 150
31 27 20 13 5 356 349 340 330 318 304 294 283 283 288 293 298 300 304 309 314 318 320 318 311 297 287 279 268 260 260 264 269 265 257 258 231 210 205 198 194 190 186 182 181 182 177 171 168 167 164 159 166 173 194 204 209 231 288 315 328 283 298 310 181 157 142 147 139 148 151 141 136 134 139 133 126 122 114 110 111 113 117 132 145 147 147 152
29 25 20 13 7 358 353 348 340 327 313 301 288 283 281 285 292 295 296 300 308 316 318 318 315 305 291 282 279 274 271 277 277 271 268 253 229 197 195 206 199 190 192 189 183 185 185 177 170 166 161 155 158 164 188 195 202 221 238 279 335 291 296 340 164 152 137 143 133 140 147 137 136 142 149 142 140 136 133 136 131 130 133 137 145 149 150 155
21 17 13 8 3 358 353 348 344 335 321 306 295 287 280 282 286 289 291 293 302 312 319 317 313 309 294 285 280 285 295 296 283 271 273 244 220 201 194 202 201 192 192 194 189 186 187 181 171 164 160 150 156 164 191 198 194 198 211 260 345 329 313 101 148 139 133 140 133 136 142 136 139 144 144 142 143 147 152 152 148 148 145 145 148 152 155 158
16 13 10 6 1 357 352 347 342 336 329 316 303 292 284 283 283 286 287 287 298 308 317 315 313 311 295 288 277 287 306 306 69 170 246 223 205 203 202 198 198 190 187 193 191 185 185 180 167 161 166 148 157 176 206 202 201 216 231 260 283 296 332 113 142 137 138 144 137 139 145 141 141 138 146 150 146 153 160 159 155 154 150 151 152 154 159 160
15 14 11 7 3 358 353 348 340 336 333 324 311 299 290 287 287 288 287 288 294 304 315 315 313 313 299 292 280 282 279 241 64 68 154 189 194 201 207 194 190 185 181 188 187 183 180 173 166 164 170 157 170 191 199 195 206 234 246 265 272 275 278 138 144 143 143 146 145 149 145 140 136 134 147 142 66 143 160 160 156 153 150 152 153 154 159 163
15 13 10 8 6 2 356 350 342 337 334 328 318 305 297 295 294 293 293 291 293 305 315 315 313 313 304 289 282 281 266 258 335 309 186 150 191 201 206 188 184 182 177 184 185 182 178 172 171 168 168 163 187 209 211 190 207 237 260 274 281 273 230 161 147 147 147 145 147 148 141 138 134 135 141 102 94 149 160 162 157 150 148 150 151 153 159 164
14 11 9 9 7 5 1 356 347 340 336 332 324 313 305 302 298 296 296 293 301 312 315 315 313 310 306 293 289 290 273 267 292 261 202 211 204 199 199 184 181 180 179 186 187 185 181 175 174 170 174 174 182 203 207 201 208 228 253 274 281 249 174 153 145 147 144 139 141 138 127 124 132 131 124 103 130 153 159 159 156 150 149 151 152 154 160 165
14 11 9 8 7 7 6 3 355 346 341 336 330 320 307 302 299 300 302 306 315 321 321 318 314 311 309 302 297 295 279 273 274 231 210 245 205 189 193 187 182 180 180 186 191 191 184 179 178 172 179 181 178 185 187 226 211 215 241 259 199 151 144 145 143 147 143 140 143 135 115 108 132 128 105 120 142 153 155 153 154 152 150 152 154 157 160 166
14 12 9 8 8 7 8 7 2 355 349 346 341 328 317 314 313 318 322 324 327 330 332 323 318 319 312 308 298 282 265 275 269 219 202 100 142 181 190 192 186 182 180 182 191 195 190 186 180 172 172 173 177 175 177 234 277 232 230 193 138 126 135 141 133 138 139 141 152 141 121 114 141 145 109 140 147 151 150 148 154 153 153 155 156 159 163 168
15 12 9 9 9 8 8 8 7 4 1 2 358 347 343 344 342 341 337 334 335 337 339 330 321 316 309 295 248 236 251 295 260 202 179 124 136 178 186 193 188 184 182 180 187 194 194 187 177 175 170 157 181 208 204 251 301 278 144 120 119 116 123 129 118 128 135 143 159 125 113 112 145 161 129 147 152 155 150 148 156 157 156 158 158 161 165 171
14 12 9 9 9 8 7 8 12 13 16 21 20 18 13 12 3 349 345 343 343 343 342 337 325 316 310 287 257 251 241 243 82 171 157 135 147 168 180 188 187 187 187 185 186 188 189 178 177 185 168 130 179 207 242 301 301 197 150 121 118 114 115 120 112 130 136 130 115 103 105 138 162 142 136 153 156 156 151 151 159 161 161 160 160 164 167 174
11 10 8 8 11 9 7 10 17 21 27 32 32 31 24 17 4 350 350 346 344 345 341 339 328 319 308 284 271 267 231 205 95 141 142 131 143 159 181 191 188 189 193 198 193 187 185 174 179 192 189 141 254 292 323 325 225 164 147 126 130 122 130 121 105 122 112 122 120 91 122 186 174 147 146 159 158 155 152 154 162 164 166 164 164 167 170 177
9 9 5 7 13 10 8 12 20 24 27 28 27 24 19 10 357 347 342 339 341 336 331 334 329 325 306 279 284 284 221 185 138 140 140 139 154 162 176 192 196 195 196 204 203 192 185 179 186 194 210 282 326 309 322 42 151 146 135 141 152 156 168 133 116 150 151 156 170 10 269 190 175 158 157 163 161 158 156 158 166 166 168 169 168 171 174 180
7 7 4 7 14 12 11 14 20 24 24 21 16 13 14 7 355 342 329 329 334 326 323 323 323 327 306 289 286 247 195 165 149 152 158 155 164 172 173 179 191 196 193 193 198 194 185 184 193 194 230 290 321 304 288 128 146 149 148 159 172 172 161 139 142 172 176 159 173 256 291 191 176 166 162 167 165 162 161 163 169 169 170 172 171 175 179 182
6 7 5 9 16 17 15 17 20 21 20 15 8 5 7 5 355 340 324 318 322 322 320 311 314 326 305 291 109 141 144 144 155 166 181 178 168 173 175 174 175 179 180 170 172 185 185 188 197 208 278 283 306 281 153 139 150 178 205 167 170 162 158 160 161 185 193 162 166 197 214 119 167 167 160 170 171 165 166 168 172 172 171 173 174 178 182 183
5 8 8 11 19 21 18 20 18 18 19 14 10 5 357 355 349 338 321 313 320 319 313 307 311 313 280 133 110 106 88 111 160 161 183 191 186 177 172 180 172 161 162 156 143 160 174 179 187 195 258 258 274 233 180 170 172 181 202 166 167 161 165 171 170 192 197 182 179 197 212 95 131 165 160 170 176 173 175 174 175 174 172 176 178 181 185 186
3 8 11 13 21 23 19 17 13 18 21 17 14 7 352 349 343 334 322 318 322 321 317 321 321 304 200 144 126 53 46 99 154 154 167 182 184 177 175 183 170 155 153 152 135 144 157 156 169 184 193 201 206 215 191 164 177 179 177 173 163 162 174 178 169 178 183 193 192 196 215 179 120 163 165 171 180 178 177 178 179 178 176 178 182 185 188 189
359 6 11 13 19 23 18 10 11 19 22 17 11 2 354 353 348 336 339 326 314 323 329 319 301 301 300 257 285 3 20 134 154 162 147 161 167 150 115 160 158 151 150 158 151 154 156 143 169 198 201 197 194 218 217 94 183 183 174 172 167 166 178 190 182 160 169 183 197 201 221 205 132 167 172 174 183 179 171 179 185 185 184 183 184 187 189 191
354 2 10 11 15 17 14 7 9 18 18 12 6 4 359 357 357 338 337 327 306 312 312 299 288 285 296 296 340 21 108 149 161 168 142 153 155 132 119 142 147 149 155 162 155 164 170 166 192 200 194 203 210 227 243 23 194 180 170 165 173 180 183 185 153 121 171 176 187 209 234 237 167 179 183 177 179 178 174 180 187 192 192 188 188 188 190 193
350 357 6 8 8 8 7 5 3 8 9 3 5 14 15 6 1 324 330 328 323 328 317 303 286 278 297 306 309 17 123 136 142 158 144 145 149 134 127 139 146 160 166 144 129 145 179 190 201 191 181 212 219 198 174 116 131 156 171 168 173 186 155 130 125 128 198 208 180 200 218 230 219 194 189 179 177 183 182 181 186 195 198 194 193 191 191 193
344 351 1 6 4 2 360 355 350 349 353 357 2 11 13 6 350 329 323 314 321 335 336 319 295 293 324 320 260 167 143 127 128 146 143 149 157 150 142 155 171 158 143 145 134 140 185 203 197 170 154 152 114 172 178 118 109 114 162 165 163 162 109 89 131 152 188 213 192 184 192 213 212 194 191 188 189 192 188 186 188 192 198 199 197 194 193 194
338 342 352 360 359 358 350 339 333 326 332 343 345 353 359 355 346 340 325 289 306 331 353 348 326 322 357 7 200 175 166 147 147 157 157 161 167 166 155 158 168 148 156 176 169 163 183 204 182 146 154 169 134 152 168 135 138 114 149 162 138 153 159 116 154 168 181 225 200 182 191 206 197 189 194 198 197 192 188 190 192 194 199 202 201 199 197 197
332 332 341 351 353 353 345 335 329 319 322 327 323 336 346 346 345 343 328 280 289 322 345 360 356 355 25 35 77 172 171 156 160 169 174 169 163 163 162 150 145 155 168 177 174 172 158 106 142 146 163 181 166 150 166 179 184 151 193 202 131 150 172 114 148 163 178 253 197 171 194 217 198 198 196 195 194 186 185 188 190 194 199 202 203 204 205 204
327 323 327 337 342 346 344 338 330 324 324 324 320 327 334 339 339 334 331 293 251 320 345 6 10 21 39 58 95 144 162 151 157 168 179 177 163 155 153 152 158 165 173 159 163 176 163 116 140 148 161 177 176 169 179 195 201 190 204 222 181 148 129 120 140 150 167 215 196 183 215 228 193 206 204 183 184 188 186 190 194 192 196 203 206 207 209 211
323 318 317 323 331 337 339 336 330 331 332 335 337 331 328 332 330 326 332 314 146 355 347 355 12 23 19 47 109 134 152 135 147 170 181 183 172 160 148 152 168 161 170 155 152 184 153 138 151 152 156 168 181 187 182 190 208 214 194 207 193 152 135 139 152 162 177 204 186 195 237 260 184 207 209 190 186 191 187 196 204 194 190 201 210 210 208 212
319 314 311 315 320 326 333 333 330 335 342 341 336 333 327 325 323 321 314 159 73 357 325 325 354 7 3 47 80 136 143 115 138 169 181 180 178 179 163 160 166 151 160 160 170 188 135 144 157 149 153 164 183 189 174 183 202 203 116 178 181 164 150 155 165 178 173 92 147 197 241 280 243 205 201 196 192 192 194 203 206 199 195 199 207 210 207 212
317 312 309 311 312 318 328 330 331 337 340 335 332 332 326 318 313 299 270 78 37 330 303 304 313 325 320 339 64 137 98 113 150 164 179 177 172 183 181 183 176 146 149 187 186 154 140 174 172 156 165 179 186 175 161 178 205 163 108 149 172 169 160 167 178 173 150 149 177 199 219 256 265 148 173 190 194 196 201 206 204 203 204 202 205 208 206 212
313 310 312 309 306 314 321 326 334 334 330 330 331 331 328 319 276 199 186 68 19 317 297 312 312 326 327 312 225 136 94 104 119 142 170 175 169 168 174 179 163 132 117 210 202 152 140 196 181 173 192 198 181 159 162 179 191 121 126 113 111 132 151 170 186 149 146 213 225 193 197 233 266 146 162 183 199 207 202 206 207 204 207 208 209 208 206 209
311 311 315 307 304 309 314 323 328 323 324 329 331 331 332 330 169 159 36 33 349 296 288 309 315 328 339 330 26 28 323 355 59 127 155 163 154 102 103 136 136 128 102 48 216 193 45 173 168 188 206 193 167 161 175 181 150 129 136 114 101 111 132 153 168 146 167 223 236 189 193 220 267 163 176 183 201 209 196 197 207 206 206 209 210 208 207 208
309 313 317 305 301 302 309 321 320 318 324 328 330 331 336 134 146 50 51 360 299 304 317 328 325 341 13 338 7 28 31 25 31 128 149 153 145 100 96 142 135 136 132 144 195 269 301 203 165 202 204 175 141 146 195 198 140 142 155 141 122 113 131 144 145 174 208 210 183 187 188 206 243 196 178 194 175 189 198 200 202 204 207 209 208 206 206 208
308 317 318 301 288 292 310 317 313 318 327 329 332 334 210 160 19 53 9 314 316 340 345 342 335 352 42 138 31 21 41 50 19 58 108 163 151 100 47 204 164 179 183 195 177 193 244 221 180 200 197 184 170 154 157 198 186 192 182 167 168 161 167 182 175 193 223 199 56 175 175 197 247 171 133 198 197 185 204 209 205 203 203 205 205 203 204 208
308 320 318 293 271 286 306 308 312 323 331 331 332 339 138 64 43 10 293 309 358 360 347 323 321 336 320 21 39 11 7 45 2 38 66 30 101 97 57 37 55 227 159 173 196 212 222 210 178 192 191 189 193 187 174 171 189 198 190 182 184 177 182 188 171 183 219 192 95 145 167 215 249 144 108 220 235 235 220 216 210 204 199 198 201 203 205 209
316 330 323 279 259 289 300 301 317 329 333 334 335 97 77 53 49 294 293 288 302 322 360 346 319 345 31 40 11 344 53 55 20 28 59 80 108 101 74 59 54 319 106 180 205 212 228 232 186 187 180 173 188 211 199 160 173 192 188 190 192 185 197 196 183 195 182 136 119 142 172 235 219 123 15 274 268 253 232 224 214 205 199 195 195 198 201 203
339 357 357 225 241 280 294 306 326 337 337 341 14 87 53 64 281 280 285 280 292 321 344 360 340 2 52 45 13 8 42 48 33 32 46 61 59 22 15 17 12 25 180 201 174 188 255 274 195 188 180 169 181 200 181 153 170 182 179 196 201 190 188 165 158 171 117 116 138 170 206 274 232 255 307 285 285 260 228 220 213 203 196 191 188 188 190 195
18 48 89 143 230 270 294 318 334 340 342 352 86 58 42 143 278 215 248 304 320 332 317 323 8 22 36 21 39 25 15 37 45 26 51 63 20 357 333 315 346 350 264 230 183 178 257 263 115 67 209 191 185 177 170 178 176 145 182 197 178 164 185 158 99 76 115 188 158 188 234 239 211 226 187 197 303 305 209 206 203 197 188 185 187 188 187 189
42 74 96 120 250 287 303 333 343 343 352 30 94 56 23 250 251 201 279 313 295 319 335 340 360 6 8 17 34 359 354 43 25 2 80 96 344 358 334 309 265 322 312 277 227 155 282 273 163 163 204 211 198 163 164 186 162 147 190 172 108 56 255 264 191 134 179 216 166 208 243 238 196 203 150 128 355 78 131 179 182 184 182 182 189 190 186 187
99 113 92 71 57 329 317 345 350 349 8 58 77 73 182 312 269 240 299 314 277 333 40 50 12 351 338 36 44 344 326 29 9 23 102 61 29 15 335 326 173 354 328 237 216 77 268 276 259 170 198 156 123 165 161 166 190 219 175 155 142 195 192 173 209 178 183 207 176 214 263 260 220 203 144 144 135 102 134 158 165 173 177 180 186 183 178 186
104 120 80 52 62 50 347 354 1 5 40 71 51 78 242 290 285 315 332 316 256 23 44 36 22 39 23 30 35 348 347 53 67 68 87 22 35 137 358 347 269 353 3 185 166 57 234 282 210 155 177 126 151 186 189 175 183 309 146 165 183 229 185 175 197 200 191 194 185 193 261 250 215 189 140 149 129 90 134 148 150 160 166 173 178 175 172 183
96 116 73 45 50 45 2 7 24 30 56 80 23 33 342 297 301 346 358 346 309 24 56 112 355 35 38 20 95 14 16 39 65 60 50 22 358 156 36 354 306 334 332 210 80 55 196 282 278 133 149 197 174 190 218 181 172 187 184 182 181 149 170 172 149 310 212 186 180 183 214 226 125 66 155 149 126 97 109 117 119 135 151 162 169 168 168 178
83 90 60 38 39 40 18 29 47 46 75 110 310 237 312 325 323 352 5 21 53 42 72 136 51 42 37 29 56 42 27 44 44 48 74 37 13 103 39 355 301 290 295 274 41 23 55 261 286 307 142 190 123 48 322 298 199 199 194 191 184 163 165 184 181 164 262 198 176 191 210 168 82 97 161 144 138 130 121 116 114 122 139 149 158 163 167 176
81 72 40 31 35 39 31 46 63 62 98 81 17 269 313 343 350 355 3 17 38 46 73 92 53 42 31 20 38 33 48 51 25 37 78 39 29 359 335 337 311 256 281 30 22 5 61 242 294 303 18 276 355 44 47 2 344 119 124 176 185 168 179 200 200 169 158 175 105 199 235 126 86 132 149 134 121 111 116 122 115 112 122 129 138 150 159 169
71 89 62 3 225 95 30 47 72 33 58 64 58 41 6 10 14 360 3 16 17 11 41 48 17 40 34 7 48 55 42 46 28 36 105 43 35 348 333 345 345 268 356 60 230 38 123 358 347 335 341 23 127 98 92 90 91 85 55 30 346 256 235 211 197 162 172 173 144 188 220 136 115 140 137 121 98 88 99 114 113 106 105 111 121 131 141 152
80 112 79 352 240 181 37 45 66 36 7 45 83 62 39 42 31 15 15 20 14 356 11 38 35 43 31 6 63 62 2 53 63 18 104 128 32 349 349 6 24 31 20 34 300 352 31 335 351 333 156 122 125 121 109 54 10 35 31 2 341 311 92 115 104 144 189 179 164 211 211 129 130 150 138 122 107 97 93 98 105 106 103 108 121 135 146 154
84 129 77 40 92 104 80 117 141 91 151 74 70 42 19 59 38 28 45 40 26 13 360 25 352 360 27 33 76 58 17 31 90 349 45 128 327 342 359 14 31 31 18 32 289 336 10 8 353 356 56 112 115 88 53 349 346 353 347 351 358 351 215 140 130 180 198 163 166 230 206 121 145 163 151 128 114 106 99 97 101 104 107 109 116 135 151 156
78 131 65 66 89 80 78 86 72 111 155 112 96 45 13 101 20 23 55 60 32 27 33 24 335 320 43 38 55 51 24 21 64 93 79 8 352 350 358 12 25 21 21 52 75 103 112 64 71 68 61 80 84 35 323 306 339 358 354 356 5 358 307 289 175 186 173 155 186 224 132 145 171 178 163 142 128 121 118 115 113 114 117 113 113 126 139 144
88 83 10 56 80 71 78 65 36 59 152 116 131 108 15 8 296 12 43 57 36 31 46 40 13 2 49 29 59 59 18 13 41 48 20 336 306 294 347 14 22 17 21 44 45 82 137 74 87 88 89 130 120 68 11 12 26 15 6 5 8 3 329 261 222 171 141 158 196 168 145 160 178 179 166 145 136 132 132 131 130 131 131 123 121 125 126 127
83 101 82 86 88 91 86 30 17 50 121 101 114 136 25 39 57 31 26 42 37 25 29 41 21 16 5 352 93 74 3 19 42 16 321 348 319 303 7 30 22 16 19 36 32 49 126 104 251 112 137 174 149 64 35 35 40 18 19 21 16 15 23 25 354 12 145 195 223 160 160 167 173 170 160 145 143 142 140 141 140 141 140 136 133 128 126 124
78 101 95 85 101 144 317 344 7 84 89 62 65 76 73 69 72 66 338 9 38 21 24 62 16 4 7 40 110 90 20 70 67 24 314 2 351 354 32 40 9 9 11 32 38 31 101 136 214 239 233 243 343 30 22 31 42 28 25 28 23 26 42 52 47 35 25 9 67 142 145 139 156 160 148 138 142 138 137 142 144 145 145 142 138 133 131 128
68 78 72 85 102 70 7 360 129 126 59 34 76 76 109 86 79 120 352 16 65 24 34 97 83 12 26 52 81 95 86 181 86 36 325 338 350 359 35 13 326 1 7 22 21 356 359 142 242 42 23 303 335 1 1 23 46 37 27 24 20 22 33 33 31 17 10 47 118 129 123 118 142 147 134 132 136 135 141 148 148 148 147 143 141 138 137 134
43 43 36 98 106 8 9 45 86 124 69 43 119 155 157 121 113 135 71 28 63 78 66 129 132 85 19 46 64 81 227 217 214 330 285 229 341 11 45 349 257 334 10 21 354 345 20 117 78 83 145 273 327 342 351 3 19 24 24 20 15 15 19 20 20 3 351 97 134 131 128 139 150 146 140 142 145 146 149 152 151 152 151 148 144 139 137 135
22 14 13 67 97 3 21 85 51 115 148 118 143 151 129 144 166 159 112 48 42 62 83 159 164 96 33 54 51 11 308 276 309 3 97 137 99 83 87 81 67 43 22 13 5 358 13 144 160 185 168 161 319 322 354 359 321 348 22 18 16 23 23 18 25 19 9 15 147 117 112 143 149 147 146 150 154 152 151 153 158 160 155 148 141 135 133 131